Regional Weather Roundup
Issued by NWS

Home | Current Version | Previous Version | Graphics & Text | Print | Product List | Glossary On
Versions: 1 2 3 4 5 6 7 8 9 10 11 12 13 14 15 16 17 18 19 20 21 22 23 24 25 26 27 28 29 30 31 32 33 34 35 36 37 38 39 40 41 42 43 44 45 46 47 48 49 50
000
ASUS45 KCYS 280410
RWRWY

WYOMING REGIONAL WEATHER ROUNDUP
NATIONAL WEATHER SERVICE CHEYENNE WY
1000 PM MDT FRI MAY 27 2016

NOTE:  "FAIR" INDICATES FEW OR NO CLOUDS BELOW 12,000 FEET
WITH NO SIGNIFICANT WEATHER AND/OR OBSTRUCTIONS TO VISIBILITY.

WYZ001-280500-
YELLOWSTONE NATIONAL PARK

CITY           SKY/WX    TMP DP  RH WIND       PRES   REMARKS
LK YELLOWSTONE   N/A     36  33  89 CALM      30.04S
W YELLOWSTONE  NOT AVBL

$$
WYZ002>013-054>058-071-098>099-280500-
NORTHERN WYOMING

CITY           SKY/WX    TMP DP  RH WIND       PRES   REMARKS
JACKSON        CLOUDY    50  32  50 SW3       29.98R
CODY           CLOUDY    52  46  82 NW5       29.91S
GREYBULL       LGT RAIN  55  46  71 SW21      29.89R
WORLAND        CLOUDY    55  47  74 NE7       29.87R
SHERIDAN       MOCLDY    50  46  86 NW14      29.91R
BUFFALO        CLOUDY    52  42  69 NW13      29.92R
GILLETTE       FAIR      42  39  89 S6        29.88R
HULETT         FAIR      52  43  71 SE3       29.89R
NEWCASTLE      FAIR      52  41  66 E5        29.90R

$$
WYZ014>020-022>026-101>103-280500-
CENTRAL WYOMING

CITY           SKY/WX    TMP DP  RH WIND       PRES   REMARKS
BIG PINEY      CLOUDY    44  37  76 N9        30.02R
PINEDALE       FAIR      41  34  75 N6        30.02R
DUBOIS         FAIR      45  28  53 NW8       29.98R
LANDER         FAIR      54  38  54 NW6       29.92R
RIVERTON       MOCLDY    55  38  52 N15G21    29.92R
CASPER         FAIR      47  41  80 NE7       29.92R
DOUGLAS          N/A    N/A N/A N/A MISG      29.92R

$$
WYZ021-027>030-104>119-280500-
SOUTHERN WYOMING

CITY           SKY/WX    TMP DP  RH WIND       PRES   REMARKS
EVANSTON       CLOUDY    48  34  58 W7        30.05R
KEMMERER         N/A     43  34  70 W8        30.04R
FORT BRIDGER   CLEAR     46  36  66 W8        30.06S
ROCK SPRINGS   CLOUDY    50  36  58 W9        30.01R
DIXON          FAIR      46  41  82 CALM      30.06S
RAWLINS        CLOUDY    47  37  68 SW12      30.00S
SARATOGA       MOCLDY    45  36  70 NE3       30.04R
LARAMIE        FAIR      39  34  82 SW7       30.02R WCI  34
CHEYENNE       FAIR      45  40  82 SW5       29.98R
TORRINGTON     FAIR      51  48  89 W5        29.91R
PINE BLUFFS    FAIR      43  41  93 W5        29.97R

$$



USA.gov is the U.S. government's official web portal to all federal, state and local government web resources and services.